Theta_e
319 319 319 319 320 321 322 322 323 323 323 323 324 324 325 326 324 323 313 327 327 347 350 345 335 336 340 340 341 337 324 321 319 319 321 329 331 334 338 334 335 338 337 341 347
319 319 319 319 319 319 320 321 321 322 322 322 323 324 325 325 321 316 332 343 351 351 335 330 326 335 337 335 334 329 323 322 326 327 325 329 330 333 332 332 333 337 342 345 346
318 318 318 318 318 318 318 320 320 321 321 321 322 323 324 325 316 320 355 346 352 347 333 344 339 337 334 334 331 328 323 327 328 330 330 329 329 335 332 329 334 334 339 342 343
317 317 317 317 318 318 318 319 319 320 320 321 322 323 325 323 310 328 358 354 356 340 343 343 339 332 331 328 331 324 329 329 330 332 331 329 330 331 333 333 338 340 343 342 341
316 316 316 316 317 317 317 318 318 319 319 320 321 323 319 307 310 324 358 354 339 339 337 341 336 333 327 331 330 325 328 332 333 332 332 332 330 328 332 335 340 342 343 341 342
315 315 315 316 316 316 317 317 318 318 319 320 321 322 315 303 316 330 339 334 328 334 332 340 334 337 332 328 327 330 331 330 331 330 331 329 329 330 331 339 339 340 341 342 342
315 315 315 316 317 317 317 317 317 318 319 320 321 321 312 307 330 333 330 328 328 328 330 338 342 336 334 329 332 333 326 327 330 330 327 331 325 326 334 338 337 338 340 340 341
314 315 316 316 316 316 316 316 317 318 320 323 322 321 304 313 316 315 319 322 327 331 335 344 345 340 330 335 333 328 326 319 326 328 326 326 317 327 335 336 335 337 338 339 340
314 315 315 315 315 314 314 315 317 319 325 324 320 311 304 318 313 317 317 316 324 328 342 344 341 336 333 327 324 325 318 319 321 328 325 324 319 327 333 335 334 336 337 338 340
315 314 314 314 314 313 313 315 316 318 324 325 322 306 308 309 316 320 317 323 323 328 333 333 333 327 329 326 313 316 317 319 319 324 326 322 322 327 330 332 333 335 337 338 338
314 314 314 313 313 313 311 308 305 307 316 307 306 305 307 314 316 320 319 324 325 325 320 326 319 317 320 326 323 322 319 318 323 327 323 322 323 326 329 330 330 332 334 336 337
314 313 313 313 312 313 309 303 306 307 303 309 310 310 311 312 307 313 321 318 319 314 321 320 315 321 323 325 323 322 319 319 323 325 324 323 322 327 328 329 331 331 332 333 335
313 313 313 312 312 308 304 305 310 309 303 306 308 308 310 311 307 309 318 319 317 316 318 316 319 323 319 320 320 320 318 319 318 322 324 322 320 322 328 330 332 332 333 334 333
313 313 313 311 306 305 304 309 309 309 300 302 304 308 310 311 307 314 318 320 317 314 319 318 323 322 319 318 321 314 322 321 319 318 314 320 312 320 324 326 329 331 332 333 334
312 313 312 311 305 303 306 309 309 306 289 301 304 312 310 308 310 310 317 317 314 315 318 314 319 320 320 320 321 315 323 320 320 318 316 316 313 319 320 321 326 330 332 334 335
312 312 311 308 306 308 310 308 306 299 290 301 306 305 305 307 309 312 312 319 323 320 320 319 326 324 323 325 325 326 321 318 319 317 310 315 314 315 318 322 326 329 332 334 335
311 310 309 309 304 308 308 305 299 293 301 301 302 305 304 304 305 310 309 311 311 309 311 317 321 325 327 321 324 322 317 311 309 308 308 314 312 316 323 324 326 328 331 333 336
310 310 308 308 310 310 305 302 293 298 298 303 302 301 301 304 304 308 309 308 314 314 312 310 308 320 325 323 319 318 318 312 303 304 308 312 310 316 324 327 327 327 329 331 333
309 308 305 308 310 308 302 295 297 298 301 300 301 299 300 303 304 307 309 309 312 316 311 311 310 321 324 325 324 318 313 321 312 312 310 312 316 322 325 324 327 327 328 328 330
305 303 306 310 310 304 300 295 299 300 302 301 297 299 297 298 302 304 307 312 312 319 322 317 309 318 321 324 323 320 322 313 314 305 304 309 311 313 320 323 326 328 329 331 334
304 306 306 310 306 301 296 297 299 303 303 300 298 297 298 298 300 303 306 309 314 316 322 319 315 313 320 318 316 316 315 317 317 313 307 305 309 322 323 324 325 330 333 334 335
303 303 308 308 299 296 298 299 299 302 302 302 301 300 299 299 299 300 304 310 313 316 314 318 316 311 314 319 322 322 318 318 311 309 311 311 311 321 324 325 328 331 336 337 337
304 305 309 306 297 300 303 302 300 301 301 301 300 301 302 301 300 301 302 307 310 313 313 314 309 306 309 315 319 317 318 320 319 316 311 308 310 321 322 324 326 333 337 337 337
305 302 306 305 302 300 300 302 302 306 303 303 303 304 303 302 303 303 302 305 307 311 323 318 312 308 305 310 317 314 316 319 318 312 313 313 314 320 322 320 322 333 335 335 335
303 300 302 299 301 299 300 301 301 302 305 305 303 302 301 299 300 300 302 304 307 314 315 314 307 311 311 313 316 315 316 318 316 318 313 315 316 319 324 322 324 329 334 331 330
300 299 303 300 301 299 298 300 300 301 302 303 301 303 304 301 303 301 303 305 305 309 310 310 309 310 309 312 313 311 315 316 318 318 318 318 317 324 324 326 326 332 333 332 332
304 304 300 299 300 298 298 299 299 300 302 305 303 302 303 305 307 308 309 309 308 304 306 309 309 309 304 310 311 307 312 314 317 320 319 314 320 326 324 325 330 333 334 334 335
Wind_Speed
18 18 18 18 18 19 18 18 18 18 17 18 17 17 16 15 15 4 8 7 7 18 18 17 8 11 13 6 5 3 2 1 2 1 3 1 8 3 5 12 3 3 4 11 23
18 18 18 18 19 19 19 19 18 18 18 18 18 17 16 16 5 8 10 8 7 20 14 18 14 14 5 5 3 4 3 4 1 1 2 2 8 10 6 13 5 8 12 22 23
18 18 18 19 19 19 19 19 19 19 19 18 19 19 17 14 6 3 3 10 9 14 11 8 15 11 4 2 3 2 3 3 2 5 3 1 5 9 10 10 10 14 21 23 23
18 19 19 19 20 19 20 20 20 20 19 18 18 19 19 3 5 1 8 8 11 6 12 12 12 7 5 5 4 4 6 4 2 4 4 3 10 8 12 3 9 19 24 24 24
18 19 19 20 20 20 20 20 20 20 19 18 16 16 5 3 10 3 4 8 10 7 11 9 11 5 5 4 5 4 4 4 8 6 8 5 8 6 10 4 12 21 23 22 20
19 18 19 19 20 21 21 22 22 20 19 17 14 11 2 7 3 4 3 10 9 8 8 8 6 5 3 3 5 3 9 8 6 5 6 7 5 8 4 12 17 21 22 20 20
19 19 19 20 21 22 23 22 23 22 21 18 9 3 3 15 3 5 5 4 5 3 6 6 5 5 6 4 0 3 6 4 6 2 4 7 6 5 11 15 18 18 19 18 17
19 19 21 22 22 22 24 24 24 23 17 8 7 4 9 4 4 6 7 2 3 0 1 6 4 4 1 2 2 4 2 4 4 1 4 7 4 6 13 16 17 17 17 17 17
20 20 21 22 22 23 25 25 24 10 5 11 5 3 10 3 5 9 11 9 8 3 3 6 2 1 3 2 4 2 3 4 3 2 3 7 4 9 12 13 15 17 18 16 16
20 20 21 21 22 23 26 24 8 6 3 4 1 3 7 4 4 5 6 14 6 11 6 4 2 2 1 4 6 3 4 2 5 9 8 1 5 11 13 14 15 16 17 17 17
19 21 21 22 22 22 16 3 3 4 4 8 5 5 4 6 4 4 7 11 9 8 8 5 6 11 12 6 5 8 1 7 7 9 11 2 3 10 14 14 14 16 17 18 19
21 21 22 23 23 22 2 3 4 4 8 14 16 13 10 3 4 3 13 11 10 10 8 6 11 9 4 4 5 6 4 8 9 6 4 8 5 8 14 15 17 18 18 19 17
21 21 22 23 25 1 4 4 3 2 5 7 8 8 9 12 9 7 13 7 17 12 16 13 6 9 12 10 9 3 5 7 6 4 4 5 7 6 10 13 15 16 14 16 19
21 20 18 24 2 5 5 3 5 3 4 5 5 6 9 10 8 14 13 10 7 17 16 11 9 6 9 8 11 5 4 9 4 5 4 2 4 6 11 15 17 18 18 18 20
22 18 14 9 9 4 3 7 4 4 5 3 4 2 5 15 8 13 11 9 14 11 10 10 11 12 8 9 9 1 7 7 7 4 4 6 6 4 6 11 18 19 22 22 21
24 18 15 4 4 7 8 8 4 4 8 0 5 6 6 12 7 6 11 6 3 9 6 10 2 10 8 7 10 10 6 2 3 2 6 9 7 6 7 12 13 15 20 21 21
24 20 13 5 3 4 6 3 4 6 2 3 1 5 5 11 12 9 16 17 13 14 14 5 7 4 7 8 4 4 5 2 3 5 5 5 7 10 7 9 8 13 16 18 19
27 23 2 10 4 11 4 3 7 3 5 3 2 1 7 10 14 9 17 19 16 17 13 15 11 10 7 6 10 10 3 4 6 6 5 2 7 6 9 8 9 10 10 11 18
22 1 1 2 10 2 4 7 7 4 3 5 4 1 2 4 5 9 17 22 21 18 14 15 14 5 11 7 6 5 10 5 1 1 3 3 5 10 9 13 10 9 9 14 16
4 3 4 6 9 4 4 6 4 3 4 2 2 3 5 4 5 13 13 15 18 17 17 9 14 5 6 7 4 4 3 6 2 5 6 4 4 4 3 8 6 5 5 8 9
1 0 9 5 3 3 5 6 5 5 4 3 2 5 5 4 3 7 9 7 20 16 17 12 8 6 11 12 14 5 6 4 2 3 4 4 5 6 7 8 8 4 5 4 1
3 2 3 2 2 1 3 3 2 3 2 1 2 4 5 4 4 3 7 10 12 18 16 13 10 8 7 3 4 9 10 11 8 6 3 3 5 4 3 5 3 2 5 6 4
4 2 2 3 2 1 3 4 4 3 5 3 3 4 2 2 5 3 3 2 7 15 18 10 11 9 7 6 4 9 8 18 10 3 12 10 4 1 2 5 5 3 4 8 8
3 2 1 1 2 3 5 3 4 2 2 3 3 3 4 5 5 4 4 3 2 6 4 16 18 20 16 14 8 8 15 17 19 14 13 13 14 7 11 6 2 2 6 6 6
4 4 4 3 2 5 4 4 4 3 2 2 3 4 1 3 2 6 4 6 3 7 4 10 13 17 21 17 16 18 17 18 17 19 16 13 15 12 12 9 9 6 9 11 11
4 5 5 4 5 4 1 1 3 6 3 1 3 5 3 5 8 2 8 4 3 2 4 5 5 11 22 22 22 21 22 21 23 23 20 16 15 11 6 3 9 14 14 14 13
3 1 2 3 4 4 1 3 2 11 6 9 8 8 9 4 6 12 14 15 15 7 3 7 6 7 11 15 17 22 27 23 18 15 17 19 17 16 10 12 13 12 13 13 16
Wind_Direction
353 350 348 347 344 342 340 338 337 336 337 333 334 332 328 327 311 178 245 221 164 152 134 151 170 162 186 180 185 187 225 175 47 54 97 108 165 128 102 131 112 41 147 133 148
348 346 345 343 341 339 336 334 333 334 335 333 333 331 330 332 289 251 252 244 138 154 135 156 168 167 189 166 165 219 222 204 176 288 164 131 199 151 153 144 114 86 104 134 150
345 342 341 339 338 335 334 329 329 331 331 332 332 330 327 323 285 238 63 216 168 177 159 158 151 167 177 179 185 153 251 183 244 221 229 346 180 170 159 187 177 167 150 152 159
343 341 339 337 335 332 331 325 326 326 326 328 330 328 322 272 283 71 339 191 142 199 142 137 159 171 187 194 174 247 238 222 249 229 187 218 147 191 195 156 173 162 163 159 167
341 340 337 335 332 329 326 322 320 319 320 322 324 329 330 285 255 358 6 139 157 173 163 153 167 183 206 173 166 242 244 219 244 248 244 207 199 183 196 98 132 147 161 167 169
340 338 335 331 329 327 322 319 316 314 314 311 312 318 284 265 310 318 146 140 173 168 162 165 200 196 129 172 200 218 265 265 266 227 227 200 189 189 127 128 138 154 164 169 174
337 334 331 329 328 324 319 316 313 312 307 297 281 245 220 249 80 75 135 161 158 195 164 180 164 195 147 186 221 281 277 217 203 214 165 170 124 185 143 149 147 161 165 169 177
336 332 329 328 326 323 318 314 313 309 301 290 185 178 250 240 238 267 242 191 129 76 160 148 143 103 110 70 221 265 272 186 60 105 136 209 111 129 156 155 153 164 169 171 180
335 330 330 328 326 323 318 313 308 306 330 138 145 224 260 302 227 225 188 206 152 149 131 122 152 110 159 208 202 357 78 25 342 49 207 223 114 150 166 166 160 172 174 177 184
335 332 331 328 327 324 320 308 287 300 163 227 243 250 240 216 183 149 188 160 148 146 136 151 89 210 179 200 215 157 70 16 327 344 342 136 123 156 173 177 174 180 180 183 193
333 333 330 327 325 325 330 335 214 188 219 212 194 245 298 318 259 160 163 149 138 166 174 170 198 212 216 244 97 91 328 307 300 305 327 323 154 179 180 187 184 189 187 191 198
332 332 329 326 324 321 284 272 87 344 292 235 242 260 263 335 331 152 161 162 165 175 145 150 226 218 246 208 154 199 254 303 301 334 250 298 265 184 191 203 198 195 195 197 198
331 330 330 326 319 299 307 248 23 336 264 272 210 219 223 182 220 235 182 168 177 168 188 202 213 202 219 222 193 171 246 276 275 332 240 287 260 193 200 216 212 217 215 205 199
328 329 329 329 231 344 263 161 339 231 281 246 216 241 172 168 225 202 193 180 175 190 177 212 199 173 187 227 189 240 240 266 270 212 211 257 253 215 204 204 214 214 216 212 204
324 324 327 336 302 256 34 346 296 207 278 122 165 73 155 193 143 203 186 198 197 161 176 192 179 184 197 206 138 332 289 272 230 252 280 187 247 206 173 216 222 213 215 216 211
320 318 320 292 230 257 303 311 232 208 243 336 142 165 157 203 194 131 173 198 196 159 203 185 164 192 206 226 134 180 191 65 75 328 243 220 228 238 194 213 214 214 223 219 211
317 307 291 233 236 148 326 185 194 223 2 140 163 175 201 185 209 188 173 182 177 182 188 172 167 140 136 95 37 116 186 185 185 198 239 152 197 254 253 238 222 199 214 220 219
318 311 270 199 279 260 298 177 217 245 250 339 0 261 205 161 211 194 176 183 198 190 184 193 194 171 162 163 181 171 247 221 208 195 192 168 220 227 260 239 220 242 254 224 214
321 336 198 204 219 249 185 202 212 216 316 331 312 103 155 191 218 190 193 195 186 190 195 199 199 142 176 126 147 157 208 273 216 67 243 177 253 270 248 260 250 240 241 239 227
336 314 28 355 164 220 195 227 239 236 318 320 16 17 36 343 214 196 185 195 187 190 193 191 202 162 133 103 41 183 124 186 218 209 222 193 263 220 239 257 260 298 299 290 255
327 138 8 100 167 240 212 232 249 249 250 321 22 343 342 314 318 204 198 175 196 185 201 184 215 130 156 202 165 153 198 240 238 243 225 224 213 222 263 294 293 349 43 17 15
326 54 100 264 189 33 246 242 293 244 202 291 272 256 264 294 279 269 221 234 190 166 185 194 208 185 189 108 240 203 180 204 225 182 256 282 236 183 233 256 278 111 106 92 79
7 324 110 273 9 7 311 273 262 244 257 220 266 225 214 293 315 262 263 264 173 187 181 172 210 200 183 169 152 210 179 216 245 259 204 226 213 35 222 265 265 172 133 120 115
326 303 86 80 47 342 339 294 293 273 258 248 268 215 242 256 228 289 292 317 67 213 225 187 210 220 225 226 178 192 202 211 226 233 242 236 260 250 248 200 190 143 143 129 129
13 40 357 339 106 338 308 298 302 316 358 269 226 242 13 270 249 227 248 287 257 137 94 187 220 220 231 220 202 217 218 209 216 229 238 254 233 250 248 202 231 190 172 162 155
9 358 349 298 290 294 173 344 322 335 295 292 243 341 354 244 245 22 353 301 341 149 153 177 204 202 224 223 214 226 230 230 222 229 240 262 266 245 288 174 212 205 189 189 166
15 336 307 299 328 294 51 355 353 344 271 267 316 330 307 291 291 285 275 267 270 316 300 170 172 171 219 217 225 229 225 227 223 227 229 235 242 260 222 231 219 203 196 182 161